Volver al catálogo

STARLINK-31943

ActivoComunicacionesVLEO
NORAD 59878·PAYLOAD·🇺🇸 United States

Lanzado May 24, 2024 desde Cape Canaveral Space Force Station

Loading…

Próximos Pases (próximas 24 horas)

TLE

ActualizadoSource: CelesTrak SupGP

Época: Sep 14, 2026, 21:32 UTC

1 59878C 24098W   26257.89770833  .00132000  00000+0  84751-3 0  2577
2 59878  42.9848 263.2512 0024982  99.8709 223.7749 15.74743918    16

Sigue STARLINK-31943 en tiempo real con AllMySat

Download on the App Store